Regional Weather Roundup
Issued by NWS

Home | Current Version | Previous Version | Graphics & Text | Print | Product List | Glossary On
Versions: 1 2 3 4 5 6 7 8 9 10 11 12 13 14 15 16 17 18 19 20 21 22 23 24 25 26 27 28 29 30 31 32 33 34 35 36 37 38 39 40 41 42 43 44 45 46 47 48 49 50
567
ASUS44 KJAN 301403
RWRMS

MISSISSIPPI HOURLY WEATHER ROUNDUP
NATIONAL WEATHER SERVICE JACKSON MS
900 AM CDT THU OCT 30 2014

NOTE: "FAIR: INDICATES FEW OR NO CLOUDS BELOW 12,000 FEET WITH NO
SIGNIFICANT WEATHER AND/OR OBSTRUCTIONS TO VISIBILITY.

MSZ001>002-007>008-010>013-018>021-025>028-034>036-301500-
NORTHWEST MISSISSIPPI

CITY           SKY/WX    TMP DP  RH WIND       PRES   REMARKS
CLARKSDALE     FAIR      50  50 100 CALM      30.18S
CLEVELAND      FAIR      53  50  92 CALM      30.18R
GREENWOOD      SUNNY     52  46  80 CALM      30.18R
GREENVILLE     MOSUNNY   53  50  89 N3        30.18R
GRENADA        FAIR      46  46 100 CALM      30.18R
OLIVE BRANCH   SUNNY     45  45 100 CALM      30.18R
OXFORD         FAIR      45  45 100 CALM      30.19R
TUNICA         SUNNY     46  46 100 CALM      30.18S
$$

MSZ003>006-009-014>017-022>024-029>033-037>039-301500-
NORTHEAST MISSISSIPPI

CITY           SKY/WX    TMP DP  RH WIND       PRES   REMARKS
COLUMBUS AFB   SUNNY     49  47  92 VRB2      30.17R
CORINTH        FAIR      45  43  93 CALM      30.18S
GOLDN TRIANGLE SUNNY     48  45  87 CALM      30.16R
STARKVILLE     FAIR      48  45  87 NW3       30.17R
TUPELO         SUNNY     49  44  83 NE3       30.17R
$$

MSZ040-058-301500-
CENTRAL MISSISSIPPI

CITY           SKY/WX    TMP DP  RH WIND       PRES   REMARKS
JACKSON INTL   SUNNY     54  47  77 CALM      30.17R
JACKSON HAWKNS SUNNY     53  48  83 CALM      30.17R
MERIDIAN KEY   SUNNY     51  45  79 CALM      30.16R
MERIDIAN NAS   SUNNY     50  45  83 CALM      30.16R
RAYMOND        FAIR      46  41  81 CALM      30.17R HAZE
VICKSBURG      SUNNY     54  51  90 CALM      30.17R
$$

MSZ059>079-301500-
SOUTH MISSISSIPPI

CITY           SKY/WX    TMP DP  RH WIND       PRES   REMARKS
BROOKHAVEN     FAIR      54  45  71 NE3       30.17R
COLUMBIA         N/A     54  48  82 MISG      30.14R
HATTIESBURG    SUNNY     56  46  69 N3        30.16R
MCCOMB         SUNNY     57  41  55 NE7       30.14R
NATCHEZ        SUNNY     55  45  67 E5        30.16R
PINE BELT      SUNNY     55  43  62 N8        30.16R
$$

MSZ080>082-301500-
COASTAL MISSISSIPPI

CITY           SKY/WX    TMP DP  RH WIND       PRES   REMARKS
BAY ST LOUIS   SUNNY     59  41  51 NE7       30.12R
BILOXI         SUNNY     60  46  59 NE9       30.11R
PASCAGOULA     SUNNY     60  48  64 N8        30.11R
GULFPORT       SUNNY     60  44  55 N8        30.11R
$$



USA.gov is the U.S. government's official web portal to all federal, state and local government web resources and services.